Vorticity
nan nan nan nan nan nan nan nan nan nan nan nan nan nan nan nan nan nan nan nan nan nan nan nan nan nan nan nan nan nan nan nan nan nan nan nan nan nan nan nan nan nan nan nan nan nan nan nan nan nan nan nan nan nan nan nan nan nan nan nan nan nan nan nan nan nan nan nan nan nan nan nan nan nan nan nan nan nan nan nan nan nan nan nan nan nan
nan 8 12 13 8 3 7 14 11 8 7 6 7 9 10 10 8 10 15 15 11 9 9 10 10 11 15 22 22 17 14 12 12 12 12 12 11 10 9 8 7 6 6 6 7 7 8 8 8 8 8 8 8 8 8 8 8 8 8 8 8 8 8 7 7 7 6 6 6 7 7 7 7 7 8 8 8 8 8 8 8 8 8 8 8 nan
nan 8 10 12 9 6 7 11 11 11 9 7 8 11 12 9 7 7 11 13 12 11 9 10 11 11 13 19 23 20 14 12 11 11 11 10 10 9 8 6 6 5 6 6 7 8 8 8 8 8 8 8 9 8 8 8 8 8 8 8 8 8 7 7 6 6 6 6 7 7 7 7 7 8 8 8 8 7 7 8 8 8 8 8 8 nan
nan 8 9 9 10 9 9 9 11 12 13 11 11 13 12 10 9 9 10 11 11 11 11 11 10 11 12 17 23 23 17 12 11 10 9 8 8 7 6 5 5 5 5 6 7 8 8 9 8 8 9 9 9 9 8 8 8 8 8 8 8 8 7 7 6 6 6 7 7 7 7 8 8 8 8 7 7 7 7 7 8 8 8 8 8 nan
nan 8 9 8 9 11 13 10 10 11 12 12 12 12 11 10 10 11 11 11 10 9 10 11 11 10 10 14 18 20 18 14 11 9 8 7 6 5 5 4 4 4 5 7 8 9 9 9 9 9 9 9 9 9 9 8 8 8 8 8 8 8 7 6 6 7 7 7 7 7 7 8 8 8 7 7 7 7 7 8 8 8 8 8 8 nan
nan 9 9 8 9 10 12 11 11 10 10 11 11 11 9 9 9 9 10 10 10 9 10 11 11 11 9 10 14 17 18 16 13 10 8 7 6 5 5 4 4 5 6 8 9 9 10 10 10 9 9 9 9 9 9 9 8 8 8 8 8 7 7 7 7 7 7 7 7 7 7 7 7 7 7 7 7 7 8 8 8 8 8 8 8 nan
nan 10 9 8 9 9 10 11 11 9 8 9 10 10 9 9 9 9 8 8 8 9 10 10 11 11 11 12 14 17 20 21 21 19 17 14 12 10 9 8 7 7 8 9 9 10 10 10 10 10 10 10 9 9 9 9 9 8 8 8 7 7 7 7 7 7 7 7 7 7 7 7 7 7 7 7 7 8 8 8 9 8 8 8 8 nan
nan 8 8 8 8 8 8 10 11 10 9 8 9 9 9 8 9 9 9 8 8 8 9 10 10 11 12 13 16 17 18 21 24 27 27 27 25 22 18 16 14 12 11 11 11 11 11 11 11 10 10 10 9 9 9 8 8 8 8 8 7 7 7 8 8 8 8 7 7 7 7 7 7 7 7 7 8 8 8 9 9 9 9 9 8 nan
nan 7 8 8 7 7 8 9 11 11 10 9 9 9 10 8 8 9 10 9 9 9 9 8 8 10 10 12 14 15 13 12 11 13 15 18 21 22 21 21 22 21 17 15 14 13 13 12 11 11 10 10 9 9 8 8 8 8 8 8 8 8 8 8 8 8 8 7 7 7 7 6 6 6 7 8 8 8 8 9 9 9 9 8 8 nan
nan 7 8 10 9 9 8 9 11 12 12 10 9 9 10 10 9 9 9 9 9 10 10 9 9 8 10 11 12 14 14 13 11 7 4 2 4 6 10 13 17 20 19 17 16 15 15 14 13 12 11 10 10 9 9 9 8 8 8 8 8 9 9 9 9 8 8 7 7 7 6 6 6 6 7 8 8 8 8 9 9 8 8 8 8 nan
nan 11 10 10 11 11 10 10 11 12 12 11 10 10 10 10 10 9 9 8 9 10 10 11 10 9 9 11 12 13 14 16 20 21 20 16 13 11 12 13 13 15 19 18 18 17 16 15 14 13 13 12 11 10 10 10 10 9 9 9 9 9 9 9 9 9 8 8 7 7 6 6 6 6 7 8 8 8 8 8 8 8 8 8 8 nan
nan 12 11 11 10 10 11 11 10 10 10 11 10 11 10 10 10 10 9 9 9 10 11 11 12 11 10 10 11 13 13 13 16 20 25 27 28 26 26 25 25 25 27 27 28 27 22 19 17 16 14 14 13 12 10 11 11 11 10 10 10 9 9 9 9 9 9 8 7 6 6 6 6 6 7 8 8 8 8 8 8 8 8 8 8 nan
nan 10 11 10 9 9 10 11 9 8 8 10 11 10 10 10 11 10 10 9 9 10 11 11 12 13 13 10 10 11 12 12 12 12 14 18 21 22 23 23 24 27 29 30 32 34 32 28 26 24 18 16 15 14 13 11 11 11 11 10 10 10 9 9 9 9 9 8 7 6 5 6 6 7 7 8 8 8 8 8 8 8 8 8 8 nan
nan 9 9 9 8 8 10 10 8 8 7 8 10 10 11 11 11 10 10 9 9 9 10 9 10 11 13 13 11 10 9 10 11 11 10 11 12 13 12 13 13 14 17 18 20 25 27 27 29 33 30 23 21 19 17 15 13 11 11 10 10 10 10 10 10 9 8 8 6 6 5 6 6 7 8 8 8 8 8 8 8 8 8 8 8 nan
nan 9 9 8 7 8 9 11 10 9 8 8 9 10 11 11 11 10 10 9 9 9 10 10 9 9 11 13 13 12 10 8 9 10 10 9 11 12 11 9 9 9 10 11 11 16 20 18 18 23 30 26 20 17 13 13 13 12 11 10 10 10 10 10 10 9 8 7 6 6 5 6 7 7 8 8 8 8 7 7 8 8 8 8 8 nan
nan 11 10 9 8 8 9 10 10 11 11 10 11 11 11 10 10 10 10 10 9 10 10 11 10 10 12 14 14 13 10 8 9 10 10 9 11 13 12 10 9 8 9 10 10 12 16 14 13 12 18 17 13 9 7 6 8 9 9 9 9 9 9 9 9 8 7 6 6 6 6 6 7 7 7 8 8 8 7 7 7 7 8 8 8 nan
nan 10 12 10 10 9 10 10 10 10 11 11 11 11 10 10 9 10 10 10 9 9 10 10 10 10 12 16 18 17 12 7 7 10 11 10 11 14 13 11 10 9 9 10 10 10 12 11 11 11 14 13 11 9 7 5 5 6 7 7 8 8 9 9 8 8 7 6 6 6 6 6 7 7 7 8 8 8 7 7 7 7 7 7 7 nan
nan 10 11 11 10 10 10 10 11 10 10 11 11 11 10 10 9 10 10 9 8 8 8 8 8 7 8 12 16 22 18 9 7 8 11 11 11 14 14 11 11 9 9 10 9 10 10 11 9 7 9 12 9 9 7 6 7 7 7 7 8 8 8 8 8 7 7 6 6 6 6 7 7 7 7 8 8 7 7 7 7 7 7 7 7 nan
nan 9 9 10 9 10 9 10 9 9 9 10 11 11 10 10 9 9 9 9 9 8 8 6 6 6 7 7 11 18 20 13 8 8 9 11 11 12 14 12 12 10 9 10 10 10 10 13 14 12 7 9 9 8 7 7 7 7 8 8 9 9 9 8 8 7 7 6 6 6 6 7 7 7 7 8 8 7 7 7 7 7 7 7 7 nan
nan 7 7 9 10 10 10 10 9 9 8 9 9 9 10 11 10 9 9 8 8 8 8 8 7 6 8 8 9 12 16 14 11 9 9 10 11 12 14 13 12 10 8 10 11 11 10 12 17 22 19 14 11 9 8 7 7 7 8 9 9 9 9 8 8 7 7 6 7 7 7 7 7 7 7 7 7 7 7 7 7 7 7 7 7 nan
nan 7 6 6 7 9 10 13 12 11 9 7 6 7 9 10 10 8 8 9 9 8 7 8 9 8 8 9 10 12 14 12 9 8 10 11 11 12 14 14 13 12 9 9 11 11 11 10 13 20 25 18 13 10 8 7 7 7 8 8 9 9 9 8 8 7 7 7 7 7 7 7 7 7 8 8 8 8 7 7 7 7 7 7 7 nan
nan 10 11 7 5 6 9 13 15 14 10 5 2 4 9 10 9 9 9 9 9 10 8 8 9 9 9 10 11 13 12 10 8 6 8 10 10 11 13 14 13 12 10 10 11 12 12 10 11 16 21 16 11 9 8 7 7 7 8 8 8 8 8 8 8 8 7 7 7 7 7 7 8 8 8 8 8 8 7 7 7 7 7 7 7 nan
nan 8 11 11 8 8 10 12 14 16 14 8 5 1 6 11 10 10 10 10 10 11 10 10 10 10 9 9 10 10 10 9 8 7 7 8 10 11 12 13 12 11 10 10 11 13 12 11 12 16 23 20 12 9 7 7 7 7 7 8 8 9 9 8 8 8 8 8 8 7 7 8 8 8 8 8 8 8 8 7 7 7 7 7 7 nan
nan 8 9 10 10 9 9 11 11 12 13 11 9 8 7 8 8 8 11 12 11 11 12 12 11 11 11 10 8 9 9 9 7 6 7 9 9 10 11 13 12 10 10 10 12 13 12 11 12 14 24 28 20 12 9 7 7 7 7 8 8 9 9 9 9 9 8 8 8 8 8 8 8 8 8 8 8 8 8 7 7 7 7 6 7 nan
nan 8 7 8 8 5 3 4 5 4 4 7 10 11 11 9 8 7 8 11 11 11 12 12 10 9 12 12 10 9 11 11 8 5 5 9 10 10 10 12 11 10 10 11 12 12 11 11 11 12 18 28 27 19 12 9 8 8 8 8 9 9 10 10 9 9 8 8 8 8 8 8 8 8 9 9 9 8 8 8 7 7 6 6 7 nan
nan 5 4 4 5 3 -1 -3 -2 -3 -9 -9 -1 6 11 12 10 7 7 10 11 11 10 9 9 8 9 10 11 11 12 12 10 6 4 6 8 9 9 10 11 10 9 10 11 11 9 9 10 11 13 23 29 27 18 13 10 9 9 9 9 10 10 10 10 9 8 8 8 8 8 9 9 9 9 9 9 9 8 8 7 7 6 9 13 nan
nan 7 8 5 4 3 1 -1 -1 -1 -9 -16 -15 -10 -1 7 9 9 6 8 10 10 8 8 8 8 8 8 9 11 12 12 11 10 7 6 8 9 10 10 11 11 10 10 11 11 8 7 8 9 10 15 23 29 25 18 14 11 10 10 10 10 10 10 9 9 8 8 8 8 9 9 9 10 10 10 9 9 8 7 6 7 10 17 25 nan
nan 13 16 15 12 9 5 4 4 3 -0 -6 -10 -18 -16 -4 7 8 7 8 10 9 8 8 8 8 9 9 9 11 11 11 12 12 10 6 8 10 11 10 11 10 10 11 12 13 12 10 10 10 11 10 14 22 29 24 20 17 16 13 12 11 11 10 9 9 9 9 9 9 10 10 10 10 10 9 9 8 8 6 7 10 19 26 28 nan
nan 21 24 28 27 24 18 14 14 12 8 3 -3 -14 -20 -10 4 7 8 10 10 9 9 8 7 7 8 9 10 11 11 12 13 13 10 6 7 10 11 10 10 10 9 10 12 14 14 13 13 12 13 11 9 13 24 28 26 27 27 23 20 18 14 12 11 11 10 10 10 10 10 10 10 10 9 9 8 8 7 6 9 15 25 26 20 nan
nan 25 27 31 34 37 35 30 30 30 25 15 5 -8 -17 -9 4 8 9 9 9 9 9 8 8 7 7 9 10 11 13 15 15 14 9 5 6 9 11 10 10 10 9 8 10 12 14 15 15 14 15 14 11 10 15 21 23 25 30 32 30 28 21 17 15 14 13 13 12 11 11 10 10 10 9 9 8 8 7 7 10 15 21 18 14 nan
nan 20 20 22 25 28 30 31 35 40 41 34 23 7 -6 -4 4 10 10 9 8 9 9 8 8 8 6 5 7 9 13 19 18 13 7 5 7 10 12 10 10 10 9 6 6 8 11 14 17 18 17 16 15 13 12 14 15 16 19 24 28 30 26 22 19 18 19 17 15 13 12 11 10 10 9 9 8 8 8 9 9 10 11 12 11 nan
nan 14 14 15 15 15 16 18 22 27 35 37 33 24 12 6 6 9 10 9 8 8 9 8 8 8 6 3 4 4 9 18 21 15 4 2 7 11 12 11 10 10 11 8 5 4 6 9 12 14 15 15 15 16 15 13 11 11 12 13 16 22 25 24 23 23 24 23 22 20 16 14 12 11 10 9 9 9 9 10 8 5 3 8 10 nan
nan 9 11 11 11 11 11 11 11 13 16 20 22 22 20 16 14 11 10 10 10 9 9 9 8 8 8 7 5 4 5 13 21 19 4 -3 5 10 13 12 10 10 11 10 7 5 5 6 7 8 10 12 13 14 16 14 12 11 11 10 10 15 22 22 22 23 23 25 27 28 26 23 21 18 15 14 13 12 11 12 8 2 -6 1 6 nan
nan 9 8 9 10 10 11 11 10 9 9 10 11 11 13 14 17 17 14 12 11 10 9 9 8 8 8 8 8 7 6 12 18 19 6 -3 2 9 13 12 10 9 10 11 10 8 7 7 6 6 7 9 10 11 13 14 13 11 11 9 8 11 16 18 18 18 18 19 22 26 29 30 30 28 25 21 18 15 13 13 10 5 -4 -8 -4 nan
nan 11 9 9 9 9 10 10 10 10 9 9 10 9 8 8 10 13 15 16 14 12 10 9 8 7 6 6 7 8 8 13 18 16 7 0 2 6 11 13 11 9 9 10 10 9 10 11 9 5 4 6 9 10 12 13 13 12 11 11 8 8 11 12 13 14 15 14 14 15 19 22 25 27 27 22 17 14 11 11 10 8 4 -5 -9 nan
nan 12 10 9 9 9 9 10 10 10 9 9 10 11 10 8 7 7 10 15 17 16 12 9 8 6 5 5 5 6 8 13 18 17 8 2 3 4 8 12 13 11 8 8 8 8 9 11 12 9 5 4 7 10 12 13 12 11 11 12 11 10 10 11 10 11 12 11 10 10 10 12 14 16 19 16 13 12 11 10 11 11 10 6 -0 nan
nan 11 11 10 10 10 9 9 9 10 10 10 11 11 11 10 9 7 6 9 13 16 18 15 12 10 3 0 2 4 8 13 17 18 11 5 5 5 5 11 13 11 8 7 7 7 8 8 10 11 11 8 6 6 9 11 11 11 11 11 11 11 11 12 11 10 11 10 9 8 7 8 9 11 13 18 20 22 23 24 23 20 18 17 12 nan
nan 10 10 9 9 9 9 9 9 10 10 10 11 12 12 11 10 8 8 7 8 9 13 16 18 22 15 3 1 0 5 12 15 17 14 8 8 7 6 8 11 11 8 7 7 8 8 8 8 9 11 12 10 6 6 8 9 10 11 11 10 10 11 12 11 10 10 11 10 9 8 8 9 11 13 21 24 25 28 31 30 28 28 30 27 nan
nan 10 10 9 8 9 9 9 10 11 11 11 10 10 12 13 13 11 9 9 8 7 6 8 12 21 24 18 12 6 4 8 10 12 12 8 8 9 9 7 9 9 8 8 8 8 8 8 8 6 6 9 12 12 10 8 8 8 8 10 11 12 12 12 11 11 11 12 13 12 11 11 11 10 11 14 15 16 17 19 22 24 25 27 31 nan
nan 9 11 11 9 7 8 9 10 11 12 13 13 12 10 12 14 15 14 12 10 10 9 6 6 11 17 19 19 16 10 7 8 7 7 7 7 7 9 8 8 8 8 8 8 8 6 6 7 7 5 5 8 9 9 8 6 5 2 5 9 12 12 10 10 10 11 12 12 12 11 10 9 9 9 8 9 10 10 10 13 15 16 14 18 nan
nan 9 10 12 13 12 10 10 10 10 11 12 13 13 11 11 12 14 16 15 13 12 12 10 7 7 9 12 14 17 15 11 10 5 6 8 6 4 5 7 7 8 9 9 8 9 9 7 8 8 8 7 7 8 7 7 6 5 4 3 4 6 9 9 9 10 9 10 11 11 8 8 9 9 9 9 9 9 8 7 6 7 9 9 9 nan
nan 8 9 10 13 13 13 13 12 11 10 9 11 11 10 9 9 10 12 14 13 13 12 12 11 10 9 9 10 12 13 13 12 10 8 9 7 4 3 5 6 7 9 11 11 11 10 9 9 10 9 9 9 9 9 10 10 11 9 5 5 7 14 17 14 12 10 10 11 13 12 11 13 13 12 10 10 11 10 7 5 2 3 6 7 nan
nan 10 10 10 12 14 14 12 12 11 10 10 10 10 9 9 9 9 9 11 12 12 12 12 12 12 10 9 10 11 13 14 14 13 10 9 9 8 6 5 5 6 8 10 12 14 14 11 9 9 9 9 9 8 8 10 12 13 12 9 7 8 12 17 15 12 11 10 11 13 15 14 14 14 13 12 11 11 12 12 12 11 7 6 8 nan
nan 12 12 11 11 11 12 12 12 12 11 10 10 9 10 11 10 9 8 10 13 12 11 12 13 14 13 12 10 10 13 16 17 16 15 11 6 4 7 9 8 7 6 6 8 11 14 14 12 11 11 9 9 9 9 9 10 10 10 10 9 6 2 5 7 8 10 10 10 11 11 12 12 11 11 11 10 10 10 12 14 16 15 11 10 nan
nan 13 12 12 11 11 10 10 10 10 10 10 10 10 11 13 12 10 8 10 13 13 11 10 10 12 13 13 12 11 12 14 15 17 21 22 16 7 4 7 9 10 9 7 6 6 8 11 12 11 12 11 10 9 8 8 8 9 9 10 10 9 6 2 4 7 9 10 10 10 10 9 9 10 10 10 9 9 9 9 9 11 13 13 12 nan
nan 12 12 12 13 13 11 10 9 10 10 10 10 11 12 13 12 12 10 9 10 11 11 10 8 9 10 11 11 11 11 11 13 14 17 22 22 19 14 11 9 8 9 10 9 7 5 6 7 8 10 11 11 11 9 8 8 9 11 12 12 11 11 10 9 9 10 11 11 12 13 10 10 9 9 9 10 10 10 11 10 10 11 11 11 nan
nan 11 11 11 12 13 13 12 11 10 10 10 10 11 11 12 12 12 12 10 9 10 11 10 9 8 8 7 8 9 9 9 9 11 14 16 17 17 17 17 15 10 8 9 9 9 7 7 6 6 7 9 11 12 11 10 9 9 10 12 12 11 11 11 11 12 12 11 10 10 13 13 11 9 8 9 10 11 12 12 12 12 12 12 12 nan
nan 11 11 11 12 12 12 12 11 11 10 10 10 11 12 13 11 8 10 12 10 10 10 9 10 10 9 8 8 8 7 7 8 9 12 13 14 15 14 15 16 16 14 12 12 11 11 10 9 7 6 6 7 8 9 10 10 9 9 10 10 11 10 10 11 12 12 12 11 10 10 11 10 9 11 10 9 9 10 10 11 12 12 12 12 nan
nan 11 11 11 12 12 12 12 11 11 10 9 9 10 14 16 15 6 6 10 10 9 10 10 10 9 9 9 10 10 8 7 7 9 10 11 12 13 14 13 13 14 15 15 15 15 16 17 15 10 5 2 2 4 7 9 10 10 10 10 10 11 11 11 12 12 11 12 13 12 10 10 11 10 11 10 8 7 7 9 10 11 12 12 11 nan
nan 11 12 11 12 11 12 12 11 11 11 10 9 9 11 14 15 12 9 9 9 9 10 11 10 9 8 9 10 11 9 8 8 9 9 10 11 12 12 12 12 11 11 13 14 14 15 19 21 21 14 4 -2 -2 5 9 10 11 11 11 11 11 12 12 12 12 11 12 15 15 11 10 11 11 11 11 9 9 9 10 10 11 12 12 12 nan
nan nan nan nan nan nan nan nan nan nan nan nan nan nan nan nan nan nan nan nan nan nan nan nan nan nan nan nan nan nan nan nan nan nan nan nan nan nan nan nan nan nan nan nan nan nan nan nan nan nan nan nan nan nan nan nan nan nan nan nan nan nan nan nan nan nan nan nan nan nan nan nan nan nan nan nan nan nan nan nan nan nan nan nan nan nan
CAPE
nan nan nan nan nan nan nan nan nan nan nan nan nan nan nan nan nan nan nan nan nan nan nan nan nan nan nan nan nan nan nan 1 5 5 14 19 30 30 34 33 33 30 32 33 33 35 33 33 33 34 35 38 39 39 41 44 44 46 47 48 48 49 53 55 55 57 69 91 124 124 124 111 93 93 87 96 101 101 105 101 101 90 82 77 77 74
nan nan nan nan nan nan nan nan nan nan nan nan nan nan nan nan nan nan nan nan nan nan nan nan nan nan nan nan nan nan nan 0 2 2 17 26 34 34 37 36 36 34 32 31 31 31 31 32 32 33 34 34 36 36 37 39 39 42 42 44 44 45 50 54 54 61 76 100 108 108 102 89 85 85 91 97 93 93 84 81 81 73 67 63 63 59
nan nan nan nan nan nan nan nan nan nan nan nan nan nan nan nan nan nan nan nan nan nan nan nan nan nan nan nan nan nan nan nan 3 3 22 36 44 44 46 40 40 33 29 28 28 27 30 31 31 31 33 36 35 35 34 34 34 36 37 37 37 41 46 49 49 62 81 94 88 88 79 74 74 74 83 81 72 72 66 62 62 59 58 57 57 58
nan nan nan nan nan nan nan nan nan nan nan nan nan nan nan nan nan nan nan nan nan nan nan nan nan nan nan nan nan nan nan nan 3 3 20 35 46 46 46 41 41 31 25 24 24 24 27 28 28 30 35 36 35 35 31 30 30 33 34 36 36 39 44 50 50 64 81 77 69 69 61 63 64 64 66 61 55 55 53 53 53 58 58 59 59 59
nan nan nan nan nan nan nan nan nan nan nan nan nan nan nan nan nan nan nan nan nan nan nan nan nan nan nan nan nan nan nan 0 2 2 18 32 42 42 45 36 36 29 25 22 22 24 27 30 30 32 35 36 34 34 32 32 32 33 34 39 39 43 47 57 57 74 77 69 57 57 55 56 58 58 58 51 48 48 49 52 52 55 59 59 59 59
nan nan nan nan nan nan nan nan nan nan nan nan nan nan nan nan nan nan nan nan nan nan nan nan nan nan nan nan nan nan nan nan 1 1 12 27 35 35 39 35 35 28 25 25 25 25 28 30 30 35 37 37 37 37 35 35 35 35 37 40 40 45 56 71 71 83 74 61 50 50 52 56 56 56 52 47 42 42 41 45 45 53 54 56 56 57
nan nan nan nan nan nan nan nan nan nan nan nan nan nan nan nan nan nan nan nan nan nan nan nan nan nan nan nan nan nan nan nan 1 1 10 21 31 31 33 32 32 30 28 28 28 29 31 33 33 37 41 40 36 36 37 36 36 40 40 44 44 49 66 86 86 83 68 51 49 49 51 53 50 50 45 40 36 36 36 37 37 47 49 50 50 52
nan nan nan nan nan nan nan nan nan nan nan nan nan nan nan nan nan nan nan nan nan nan nan nan nan nan nan nan nan nan nan nan nan nan nan nan 4 4 11 23 23 27 33 36 36 36 37 40 40 45 46 41 42 42 43 47 47 49 52 56 56 68 86 85 85 69 57 53 56 56 55 48 41 41 35 32 31 31 31 34 34 35 41 46 46 51
nan nan nan nan nan nan nan nan nan nan nan nan nan nan nan nan nan nan nan nan nan nan nan nan nan nan nan nan nan nan nan nan nan nan nan nan nan nan nan 2 2 15 28 34 34 36 41 44 44 47 48 48 48 48 53 55 55 59 61 68 68 74 82 72 72 63 59 59 61 61 53 47 37 37 33 31 30 30 29 29 29 31 36 42 42 50
nan nan nan nan nan nan nan nan nan nan nan nan nan nan nan nan nan nan nan nan nan nan nan nan nan nan nan nan nan nan nan nan 1 1 2 nan nan nan nan nan nan nan 10 19 19 30 37 43 43 50 49 48 52 52 61 60 60 61 63 68 68 69 68 63 63 62 63 60 56 56 52 44 37 37 32 31 29 29 27 27 27 28 34 42 42 49
nan nan nan nan nan nan nan nan nan nan nan nan nan nan nan nan nan nan nan nan nan nan nan nan nan nan nan nan nan nan nan nan nan nan nan 1 3 3 4 3 3 4 7 10 10 15 25 34 34 39 46 49 50 50 51 54 54 55 57 58 58 59 58 59 59 61 62 59 57 57 50 42 35 35 32 30 27 27 27 27 27 29 35 39 39 47
nan nan nan nan nan nan nan nan nan nan nan nan nan nan nan nan nan nan nan nan nan nan nan nan nan nan nan nan nan nan nan nan nan nan nan nan nan nan nan nan nan 3 5 7 7 11 16 23 23 28 33 35 43 43 43 42 42 48 51 52 52 52 53 52 52 54 58 58 53 53 48 43 37 37 34 31 28 28 28 28 28 31 36 41 41 49
nan nan nan nan nan nan nan nan nan nan nan nan nan nan nan nan nan nan nan nan nan nan nan nan nan nan nan nan nan nan nan nan nan nan nan nan nan nan nan nan nan nan nan nan nan nan 5 15 15 20 27 27 36 36 40 38 38 44 47 46 46 48 51 52 52 51 50 48 47 47 48 41 38 38 34 33 29 29 28 30 30 34 38 42 42 51
nan nan nan nan nan nan nan nan nan nan nan nan nan nan nan nan nan nan nan nan nan nan nan nan nan nan nan nan nan nan nan nan nan nan nan nan nan nan nan nan nan nan nan nan nan nan nan 2 2 nan 15 20 23 23 29 37 37 37 38 38 38 40 41 42 42 44 44 42 42 42 42 39 35 35 35 34 31 31 32 33 33 35 38 42 42 51
nan nan nan nan nan nan nan nan nan nan nan nan nan nan nan nan nan nan nan nan nan nan nan nan nan nan nan nan nan nan nan nan nan nan nan nan nan nan nan nan nan nan nan nan nan nan nan nan nan nan nan nan nan nan 5 12 12 25 24 27 27 30 32 36 36 35 38 39 37 37 35 36 37 37 38 33 34 34 34 34 34 36 38 44 44 49
nan nan nan nan nan nan nan nan nan nan nan nan nan nan nan nan nan nan nan nan nan nan nan nan nan nan nan nan nan nan nan nan nan nan nan nan nan nan nan nan nan nan nan nan nan nan nan nan nan nan nan nan nan nan 0 3 3 5 7 9 9 13 20 26 26 28 31 30 31 31 34 37 38 38 37 36 37 37 35 35 35 37 39 42 42 48
nan nan nan nan nan nan nan nan nan nan nan nan nan nan nan nan nan nan nan nan nan nan nan nan nan nan nan nan nan nan nan nan nan nan nan nan nan nan nan nan nan nan nan nan nan nan nan nan nan nan nan nan nan nan nan nan nan 0 0 1 1 5 9 16 16 22 24 29 32 32 37 39 40 40 40 39 37 37 38 38 38 37 38 42 42 48
nan nan nan nan nan nan nan nan nan nan nan nan nan nan nan nan nan nan nan nan nan nan nan nan nan nan nan nan nan nan nan nan nan nan nan nan nan nan nan nan nan nan nan nan nan nan nan nan nan nan nan nan nan nan nan nan nan nan nan 1 1 4 7 14 14 20 25 33 37 37 42 40 42 42 43 41 39 39 40 41 41 40 39 43 43 47
nan nan nan nan nan nan nan nan nan nan nan nan nan nan nan nan nan nan nan nan nan nan nan nan nan nan nan nan nan nan nan nan nan nan nan nan nan nan nan nan nan nan nan nan nan nan nan nan nan nan nan nan nan nan nan nan nan 0 1 5 5 7 12 17 17 25 32 38 43 43 45 46 45 45 43 42 42 42 41 42 42 42 41 44 44 47
nan nan nan nan nan nan nan nan nan nan nan nan nan nan nan nan nan nan nan nan nan nan nan nan nan nan nan nan nan nan nan nan nan nan nan nan nan nan nan nan nan nan nan nan nan nan nan nan nan nan nan nan nan nan nan 0 0 2 5 9 9 14 19 25 25 31 40 43 47 47 50 48 45 45 44 45 42 42 44 44 44 44 45 47 47 48
nan nan nan nan nan nan nan nan nan nan nan nan nan nan nan nan nan nan nan nan nan nan nan nan nan nan nan nan nan nan nan nan nan nan nan nan nan nan nan nan nan nan nan nan nan nan nan nan nan nan nan nan nan nan 0 1 1 5 8 15 15 21 26 33 33 40 45 49 50 50 48 46 46 46 47 46 45 45 45 46 46 48 47 48 48 49
nan nan nan nan nan nan nan nan nan nan nan nan nan nan nan nan nan nan nan nan nan nan nan nan nan nan nan nan nan nan nan nan nan nan nan nan nan nan nan nan nan nan nan nan nan nan nan nan nan nan nan nan nan nan 0 2 2 7 12 19 19 26 31 38 38 44 47 48 51 51 48 49 46 46 46 46 46 46 49 50 50 55 53 53 53 53
nan nan nan nan nan nan nan nan nan nan nan nan nan nan nan nan nan nan nan nan nan nan nan nan nan nan nan nan nan nan nan nan nan nan nan nan nan nan nan nan nan nan nan nan nan nan nan nan nan nan nan nan nan nan 1 4 4 8 15 21 21 27 36 41 41 44 47 49 51 51 49 48 47 47 46 46 47 47 53 56 56 60 59 56 56 55
nan nan nan nan nan nan nan nan nan nan nan nan nan nan nan nan nan nan nan nan nan nan nan nan nan nan nan nan nan nan nan nan nan nan nan nan nan nan nan nan nan nan nan nan nan nan nan nan nan nan nan nan 0 0 2 6 6 11 17 23 23 29 36 40 40 44 47 47 49 49 50 49 48 48 48 47 50 50 55 60 60 66 62 59 59 55
nan nan nan nan nan nan nan nan nan nan nan nan nan nan nan nan nan nan nan nan nan nan nan nan nan nan nan 0 nan nan nan nan nan nan nan nan nan nan nan nan nan nan nan nan nan nan nan nan nan nan nan nan 0 0 3 7 7 13 18 25 25 29 35 39 39 43 46 47 50 50 51 50 48 48 48 50 49 49 56 61 61 66 64 55 55 53
nan nan nan nan nan 10 16 11 13 13 1 nan nan nan nan nan nan nan nan nan nan nan nan nan nan nan nan nan nan nan nan nan nan nan nan nan nan nan nan nan nan nan nan nan nan nan nan nan nan nan nan nan nan nan 3 7 7 13 19 24 24 29 35 37 37 44 47 47 49 49 50 49 50 50 51 50 54 54 58 61 61 62 59 49 49 51
44 22 24 30 30 42 50 47 54 54 56 21 nan nan nan nan nan nan nan nan nan nan nan nan nan nan nan nan nan nan nan nan nan nan nan nan nan nan nan nan nan nan nan nan nan nan nan nan nan nan nan nan nan nan 1 5 5 12 18 22 22 27 31 34 34 39 44 45 47 47 49 50 52 52 51 55 58 58 58 59 59 58 55 48 48 50
114 86 49 39 39 45 53 59 63 63 73 74 55 55 7 nan nan nan nan nan nan nan nan nan nan nan nan nan nan nan nan nan nan nan nan nan nan nan nan nan nan nan nan nan nan nan nan nan nan nan nan nan nan nan nan 3 3 9 15 19 19 23 27 31 31 34 38 42 44 44 48 48 50 50 52 53 60 60 58 60 60 57 50 35 35 10
97 113 101 77 77 60 61 67 72 72 88 97 95 95 28 nan nan nan nan nan nan nan nan nan nan nan nan nan nan nan nan nan nan nan nan nan nan nan nan nan nan nan nan nan nan nan nan nan nan nan nan nan nan nan nan 1 1 6 12 14 14 18 20 24 24 28 31 35 41 41 46 48 50 50 53 55 58 58 58 57 57 52 43 24 24 4
25 58 75 86 86 87 77 41 70 70 97 99 101 101 45 nan nan nan nan nan nan nan nan nan nan nan nan nan nan nan nan nan nan nan nan nan nan nan nan nan nan nan nan nan nan nan nan nan nan nan nan nan nan nan nan nan nan nan nan 6 6 7 12 16 16 19 26 30 38 38 43 45 49 49 52 52 54 54 55 54 54 41 20 5 5 2
nan nan nan 1 1 3 3 1 34 34 94 116 113 113 59 nan nan nan nan nan nan nan nan nan nan nan nan nan nan nan nan nan nan nan nan nan nan nan nan nan nan nan nan nan nan nan nan nan nan nan nan nan nan nan nan nan nan nan nan nan nan nan 3 7 7 13 19 25 31 31 37 40 46 46 47 49 51 51 52 56 56 39 8 2 2 0
nan nan nan nan nan nan nan nan nan nan nan nan 4 4 41 7 nan nan nan nan nan nan nan nan nan nan nan nan nan nan nan nan nan nan nan nan nan nan nan nan nan nan nan nan nan nan nan nan nan nan nan nan nan nan nan nan nan nan nan nan nan nan nan nan nan 0 2 12 18 18 25 29 33 33 37 43 45 45 48 49 49 37 10 nan nan 0
nan nan nan nan nan nan nan nan nan nan nan nan nan nan nan 0 1 1 nan nan nan nan nan nan nan nan nan nan nan nan nan nan nan nan nan nan nan nan nan nan nan nan nan nan nan nan nan nan nan nan nan nan nan nan nan nan nan nan nan nan nan nan nan nan nan nan nan 0 3 3 18 24 29 29 34 38 40 40 42 39 39 37 27 nan nan nan
nan nan nan nan nan nan nan nan nan nan nan nan nan nan nan nan nan nan nan nan nan nan nan nan nan nan nan nan nan nan nan nan nan nan 2 nan nan nan nan nan nan nan nan nan nan nan nan nan nan nan nan nan nan nan nan nan nan nan nan nan nan nan nan nan nan nan nan nan nan nan nan nan 16 16 19 25 26 26 29 31 31 30 32 13 13 3
nan nan nan nan nan nan nan nan nan nan nan nan nan nan nan nan nan nan nan nan nan nan nan nan nan nan nan nan nan nan nan nan nan nan 2 nan nan nan nan nan nan nan nan nan nan nan nan nan nan nan nan nan nan nan nan nan nan nan nan nan nan nan nan nan nan nan nan nan nan nan nan nan nan nan nan 7 17 17 23 29 29 31 33 39 39 26
nan nan nan nan nan nan nan nan nan nan nan nan nan nan nan nan nan nan nan nan nan nan nan nan nan nan nan nan nan nan nan nan nan nan 1 nan nan nan nan nan nan nan nan nan nan nan nan nan nan nan nan nan nan nan nan nan nan nan nan nan nan nan nan nan nan nan nan nan nan nan nan nan nan nan nan 8 20 20 26 29 29 31 34 40 40 42
nan nan nan nan nan nan nan nan nan nan nan nan nan nan nan nan nan nan nan nan nan nan nan 1 1 nan nan nan nan nan nan nan nan nan nan nan nan nan nan nan nan nan nan nan nan nan nan nan nan nan nan nan nan nan nan nan nan nan nan nan nan nan nan nan nan nan nan nan nan nan nan nan nan nan nan 9 16 16 26 34 34 33 36 37 37 38
nan nan nan nan nan nan nan nan nan nan nan nan nan nan nan nan nan nan nan nan nan nan nan nan nan nan 4 1 nan nan nan nan nan nan nan nan nan nan nan nan nan nan nan nan nan nan nan nan nan nan nan nan nan nan nan nan nan nan nan nan nan nan nan nan nan nan nan nan nan nan nan nan nan nan nan nan nan nan nan nan nan 12 22 24 24 31
nan nan nan nan nan nan nan nan nan nan nan nan nan nan nan nan nan nan nan nan nan nan nan nan nan nan nan 1 4 4 nan nan nan nan nan nan nan nan nan nan nan nan nan nan nan nan nan nan nan nan nan nan nan nan nan nan nan nan nan nan nan nan nan nan nan nan nan nan nan nan nan nan nan nan nan nan nan nan nan nan nan nan nan nan nan 6
nan nan nan nan nan nan nan nan nan nan nan nan nan nan nan nan nan nan nan nan nan nan nan nan nan nan nan 1 5 5 5 nan nan nan nan nan nan nan nan nan nan nan nan nan nan nan nan nan nan nan nan nan nan nan nan nan nan nan nan nan nan nan nan nan nan nan nan nan nan nan nan nan nan nan nan nan nan nan nan nan nan nan nan nan nan nan
nan nan nan nan nan nan nan nan nan nan nan nan nan nan nan nan nan nan nan nan nan nan nan nan nan nan nan nan nan nan nan nan nan nan nan nan nan nan nan nan nan nan nan nan nan nan nan nan nan nan nan nan nan nan nan nan nan 0 4 nan nan nan nan nan nan nan nan nan nan nan nan nan nan nan nan nan nan nan nan nan nan nan nan nan nan nan
nan nan nan nan nan nan nan nan nan nan nan nan nan nan nan nan nan nan nan nan nan nan nan nan nan nan nan nan nan nan nan nan nan nan nan nan nan nan nan nan nan nan nan nan nan nan nan nan nan nan nan nan nan nan nan nan nan nan 2 nan nan nan nan 0 0 nan nan nan nan nan nan nan nan nan nan nan nan nan nan nan nan nan nan nan nan nan
nan nan nan nan nan nan nan nan nan nan nan nan nan nan nan nan nan nan nan nan nan nan nan nan nan nan nan nan nan nan nan nan nan nan nan nan nan nan nan nan nan nan nan nan nan nan nan nan nan nan nan nan nan nan nan nan nan nan nan 0 0 0 nan nan nan nan nan nan nan nan nan nan nan nan nan nan nan nan nan nan nan 10 9 nan nan nan
nan nan nan nan nan nan nan nan nan nan nan nan nan nan nan nan nan nan nan nan nan nan nan nan nan nan nan nan nan nan nan nan nan nan nan nan nan nan nan nan nan nan nan nan nan nan nan nan nan nan nan nan nan nan nan nan nan nan nan nan nan nan nan nan nan nan nan nan nan nan nan nan nan nan nan nan nan nan nan nan nan nan nan nan nan nan
nan nan nan nan nan nan nan nan nan nan nan nan nan nan nan nan 0 0 nan nan nan nan nan nan nan nan nan nan nan nan nan nan nan nan nan nan 6 6 nan nan nan nan nan nan nan nan nan nan nan nan nan nan nan nan nan nan nan nan nan 0 0 0 nan nan nan nan nan nan nan nan nan nan nan nan nan nan nan nan nan nan nan nan nan nan nan nan
nan nan nan nan nan nan nan nan nan nan nan nan nan nan nan nan nan nan nan nan nan nan nan nan nan nan nan nan nan nan nan nan nan nan nan nan nan nan nan nan nan nan nan nan nan nan nan nan nan nan nan nan nan nan nan nan nan nan nan nan nan nan nan nan nan nan nan nan nan nan nan nan nan nan nan nan nan nan nan nan nan nan nan nan nan nan
nan nan nan nan nan nan nan nan nan nan nan nan nan nan nan nan nan nan nan nan nan nan nan nan nan nan nan nan nan nan nan nan nan nan nan nan nan nan nan nan nan nan nan nan nan nan nan nan nan nan nan nan nan nan nan nan nan nan nan nan nan nan nan nan nan nan nan nan nan nan nan nan nan nan nan nan nan nan nan nan nan nan nan nan nan nan
nan nan nan nan nan nan nan nan nan nan nan nan nan nan nan nan nan nan nan nan nan nan nan nan nan nan nan nan nan nan nan nan nan nan nan nan nan nan nan nan nan nan nan nan nan nan nan nan nan nan nan nan nan nan nan nan nan nan nan nan nan nan nan nan nan nan nan 0 0 0 nan nan nan nan nan nan nan nan nan nan nan nan nan nan nan nan
nan nan nan nan nan nan nan nan nan nan nan nan nan nan nan nan 8 8 nan nan nan nan nan nan nan nan nan nan nan nan nan nan nan nan nan nan nan nan nan nan nan nan nan nan nan nan nan nan nan nan nan nan nan nan nan nan nan nan nan nan nan nan nan nan nan nan nan 0 nan nan nan nan nan nan nan nan nan nan nan nan nan nan nan nan nan nan
nan nan nan nan nan nan nan nan nan nan nan nan nan nan nan nan nan nan nan nan nan nan nan nan nan nan nan nan nan nan nan nan nan nan nan nan nan nan nan nan nan nan nan nan nan nan nan nan nan 1 10 0 nan nan nan nan nan nan nan 0 0 0 nan 0 0 nan 0 0 nan nan nan nan nan nan nan nan nan nan nan nan nan nan nan nan nan nan
nan nan nan nan nan nan nan nan nan nan nan nan nan nan nan nan nan nan nan nan nan nan nan nan nan nan nan nan nan nan nan nan nan nan nan nan nan nan nan nan nan nan nan nan nan nan nan nan nan nan 13 42 18 18 0 0 0 0 1 1 1 0 0 0 0 1 4 1 nan nan nan nan nan nan nan nan nan nan nan nan nan nan nan nan nan nan